Probability
0 0 0 0 0 0 0 0 0 0 0 3 3 0 0 0 0 0 0 0 0 0 0 0 0 0 0 0 0 0 0 0 0 0 0 0 0 0 0 0 0 0 0
0 0 0 0 0 0 0 0 0 0 0 3 3 3 0 0 0 0 0 0 0 0 0 0 0 0 0 0 0 0 0 0 0 0 0 0 0 0 0 0 0 0 0
0 0 0 0 0 0 0 0 0 0 0 0 0 0 0 0 0 0 0 0 0 0 0 0 0 0 0 0 0 0 0 0 0 0 0 0 0 0 0 0 0 0 0
0 0 0 0 0 0 0 0 0 0 0 0 0 0 0 0 0 0 0 0 0 0 0 0 0 0 0 0 0 0 0 0 0 0 0 0 0 0 0 0 0 0 0
0 0 0 0 0 0 0 0 0 0 0 0 0 0 0 0 0 0 0 0 0 0 0 0 0 0 0 0 0 0 0 0 0 0 0 0 0 0 0 0 0 0 0
0 0 0 0 0 0 0 0 0 0 0 0 0 0 0 0 0 0 0 0 0 0 0 0 0 0 0 0 0 0 0 0 0 0 0 0 0 0 0 0 0 0 0
0 0 0 0 0 0 0 0 0 0 0 0 0 0 0 0 0 0 0 0 0 0 0 0 0 0 0 0 0 0 0 0 0 0 0 0 0 0 0 0 0 0 0
0 0 0 0 0 0 0 0 0 0 0 0 0 0 0 0 0 0 0 0 0 0 0 0 0 0 0 0 0 0 0 0 0 0 0 0 0 0 0 0 0 0 0
0 0 0 0 0 0 0 0 0 0 0 0 0 0 0 0 0 0 0 0 0 0 0 0 0 0 0 0 0 0 0 0 0 0 0 0 0 0 0 0 0 0 0
0 0 0 0 0 0 0 0 0 0 0 0 0 0 0 0 0 0 0 0 0 0 0 0 0 0 0 0 0 0 0 0 0 0 0 0 0 0 0 0 0 0 0
0 0 0 0 0 0 0 0 0 0 0 0 0 0 0 0 0 0 0 0 0 0 0 0 0 0 0 0 0 0 0 0 0 0 0 0 0 0 0 0 0 0 0
0 0 0 0 0 0 0 0 0 0 0 0 0 0 0 0 0 0 0 0 0 0 0 0 0 0 0 0 0 0 0 0 0 0 0 0 0 0 0 0 0 0 0
0 0 0 0 0 0 0 0 0 0 0 0 0 0 0 0 0 0 0 0 0 0 0 0 0 0 0 0 0 0 0 0 0 0 0 0 0 0 0 0 0 0 0
0 0 0 0 0 0 0 0 0 0 0 0 0 0 0 0 0 0 0 0 0 0 0 0 0 0 0 0 0 0 0 0 0 0 0 0 0 0 0 0 0 0 0
0 0 0 0 0 0 0 0 0 0 0 0 0 0 0 0 0 0 0 0 0 0 0 0 0 0 0 0 0 0 0 0 0 0 0 0 0 0 0 0 0 0 0
0 0 0 0 0 0 0 0 0 0 0 0 0 0 0 0 0 0 0 0 0 0 0 0 0 0 0 0 0 0 0 0 0 0 0 0 0 0 0 0 0 0 0
0 0 0 0 0 0 0 0 0 0 0 0 0 0 0 0 0 0 0 0 0 0 0 0 0 0 0 0 0 0 0 0 0 0 0 0 0 0 0 0 0 0 0
0 0 0 0 0 0 0 0 0 0 0 0 0 0 0 0 0 0 0 0 0 0 0 0 0 0 0 0 0 0 0 0 0 0 0 0 0 0 0 0 0 0 0
0 0 0 0 0 0 0 0 0 0 0 0 0 0 0 0 0 0 0 0 0 0 0 0 0 0 0 0 0 0 0 0 0 0 0 0 0 0 0 0 0 0 0
0 0 0 0 0 0 0 0 0 0 0 0 0 0 0 0 0 0 0 0 0 0 0 0 0 0 0 0 0 0 0 0 0 0 0 0 0 0 0 0 0 0 0
0 0 0 0 0 0 0 0 0 0 0 0 0 0 0 0 0 0 0 0 0 0 0 0 0 0 0 0 0 0 0 0 0 0 0 0 0 0 0 0 0 0 0
0 0 0 0 0 0 0 0 0 0 0 0 0 0 0 0 0 0 0 0 0 0 0 0 0 0 0 0 0 0 0 0 0 0 0 0 0 0 0 0 0 0 0
0 0 0 0 0 0 0 0 0 0 0 0 0 0 0 0 0 0 0 0 0 0 0 0 0 0 0 0 0 0 0 0 0 0 0 0 0 0 0 0 0 0 0
0 0 0 0 0 0 0 0 0 0 0 0 0 0 0 0 0 0 0 0 0 0 0 0 0 0 0 0 0 0 0 0 0 0 0 0 0 0 0 0 0 0 0
0 0 0 0 0 0 0 0 0 0 0 0 0 0 0 0 0 0 0 0 0 0 0 0 0 0 0 0 0 0 0 0 0 0 0 0 0 0 0 0 0 0 0
0 0 0 0 0 0 0 0 0 0 0 0 0 0 0 0 0 0 0 0 0 0 0 0 0 0 0 0 0 0 0 0 0 0 0 0 0 0 0 0 0 0 0
Height
5783 5787 5791 5794 5797 5799 5801 5803 5804 5806 5807 5807 5808 5808 5809 5809 5809 5808 5807 5806 5805 5804 5803 5803 5802 5801 5801 5800 5799 5798 5797 5797 5796 5796 5795 5795 5795 5796 5796 5795 5795 5795 5794
5777 5781 5784 5787 5790 5793 5794 5796 5797 5798 5799 5800 5800 5800 5801 5801 5801 5800 5799 5798 5796 5795 5794 5793 5792 5791 5790 5789 5788 5787 5786 5785 5785 5784 5783 5784 5786 5786 5786 5785 5785 5785 5785
5770 5774 5777 5781 5783 5785 5787 5788 5790 5791 5791 5792 5792 5792 5792 5792 5792 5791 5790 5789 5787 5785 5783 5782 5780 5779 5778 5777 5776 5775 5774 5774 5773 5772 5772 5773 5774 5774 5774 5775 5775 5775 5775
5763 5767 5770 5773 5775 5777 5778 5780 5781 5782 5783 5784 5784 5784 5783 5783 5782 5781 5779 5778 5777 5775 5773 5771 5769 5767 5766 5765 5764 5762 5761 5760 5760 5759 5759 5760 5760 5761 5762 5763 5763 5763 5763
5756 5759 5762 5764 5767 5769 5770 5771 5773 5773 5774 5775 5775 5774 5774 5773 5772 5770 5769 5768 5766 5764 5762 5760 5758 5755 5753 5751 5750 5748 5747 5747 5746 5746 5746 5745 5745 5747 5748 5749 5751 5750 5751
5748 5751 5754 5756 5759 5760 5761 5763 5763 5764 5765 5765 5765 5764 5764 5763 5762 5760 5758 5757 5755 5753 5751 5748 5746 5743 5741 5738 5736 5734 5732 5731 5731 5731 5731 5731 5731 5733 5733 5734 5736 5737 5738
5741 5743 5746 5748 5750 5751 5753 5753 5754 5755 5755 5755 5755 5754 5753 5752 5751 5750 5748 5746 5744 5742 5739 5736 5734 5731 5728 5724 5721 5719 5717 5715 5714 5715 5715 5716 5717 5717 5718 5719 5720 5722 5724
5733 5736 5738 5740 5741 5742 5744 5744 5745 5745 5746 5745 5745 5744 5743 5742 5741 5739 5737 5735 5732 5730 5727 5723 5720 5717 5713 5709 5706 5702 5700 5698 5697 5696 5697 5698 5700 5701 5702 5704 5705 5706 5709
5725 5727 5729 5731 5732 5734 5735 5735 5736 5736 5736 5736 5735 5734 5733 5732 5730 5728 5726 5723 5721 5717 5714 5710 5706 5702 5697 5693 5688 5684 5681 5679 5678 5677 5678 5679 5682 5685 5686 5688 5690 5692 5693
5717 5719 5721 5722 5724 5725 5726 5727 5727 5727 5727 5726 5725 5724 5722 5721 5719 5717 5715 5712 5709 5705 5700 5695 5690 5685 5680 5675 5669 5665 5661 5659 5658 5658 5659 5661 5664 5666 5669 5672 5674 5676 5678
5709 5711 5713 5715 5716 5717 5718 5718 5718 5718 5718 5717 5715 5714 5712 5710 5709 5706 5704 5700 5696 5692 5686 5681 5675 5668 5662 5656 5650 5645 5641 5639 5639 5640 5641 5643 5646 5649 5653 5655 5658 5661 5664
5702 5704 5706 5707 5708 5709 5710 5710 5710 5709 5709 5708 5706 5705 5703 5701 5699 5696 5693 5689 5685 5679 5673 5667 5660 5653 5646 5639 5633 5628 5624 5622 5622 5623 5624 5627 5630 5633 5637 5640 5644 5647 5649
5695 5697 5699 5700 5701 5702 5702 5702 5702 5701 5700 5699 5697 5696 5694 5692 5689 5687 5683 5679 5674 5668 5662 5655 5647 5640 5632 5625 5619 5614 5611 5609 5608 5609 5610 5612 5615 5619 5623 5627 5630 5633 5635
5689 5691 5692 5694 5694 5695 5695 5694 5694 5693 5692 5690 5689 5687 5686 5683 5681 5678 5674 5670 5665 5658 5652 5644 5637 5630 5622 5615 5610 5605 5602 5599 5598 5598 5599 5601 5603 5607 5610 5614 5617 5620 5623
5683 5685 5686 5687 5688 5688 5687 5687 5686 5685 5684 5682 5681 5680 5678 5675 5673 5670 5666 5661 5656 5650 5643 5636 5629 5622 5615 5609 5603 5598 5595 5592 5590 5590 5591 5592 5594 5597 5600 5603 5606 5609 5611
5678 5679 5681 5681 5682 5681 5681 5680 5678 5677 5676 5675 5674 5672 5670 5668 5665 5662 5658 5654 5648 5643 5636 5630 5623 5617 5610 5604 5598 5593 5589 5587 5585 5584 5584 5585 5587 5590 5592 5595 5597 5599 5600
5673 5674 5675 5676 5676 5675 5674 5673 5672 5671 5670 5668 5667 5665 5663 5661 5658 5655 5651 5647 5642 5637 5631 5625 5618 5612 5606 5601 5595 5590 5586 5584 5582 5581 5581 5581 5582 5584 5585 5587 5589 5590 5590
5668 5669 5670 5670 5670 5669 5668 5667 5666 5665 5663 5662 5661 5659 5657 5654 5651 5648 5645 5641 5636 5631 5626 5620 5615 5609 5603 5598 5594 5589 5586 5583 5581 5580 5579 5579 5579 5580 5581 5581 5582 5582 5581
5663 5664 5664 5664 5664 5664 5663 5662 5661 5659 5658 5656 5655 5653 5651 5648 5645 5642 5639 5635 5631 5626 5621 5616 5611 5606 5601 5597 5593 5589 5586 5583 5581 5579 5578 5577 5577 5577 5576 5576 5575 5574 5572
5657 5658 5659 5659 5659 5658 5658 5657 5655 5654 5653 5651 5649 5647 5645 5643 5640 5637 5633 5630 5626 5621 5617 5613 5608 5604 5600 5595 5592 5588 5585 5583 5580 5578 5577 5575 5574 5572 5571 5569 5567 5565 5563
5653 5653 5654 5654 5654 5653 5653 5652 5651 5649 5648 5646 5644 5642 5640 5638 5635 5632 5628 5625 5621 5617 5613 5609 5605 5601 5597 5594 5590 5587 5584 5581 5578 5576 5574 5571 5569 5567 5565 5562 5559 5556 5552
5648 5649 5649 5649 5649 5648 5648 5647 5645 5644 5643 5641 5639 5637 5635 5633 5630 5627 5624 5620 5617 5613 5609 5605 5602 5598 5595 5591 5587 5584 5581 5578 5575 5572 5569 5566 5563 5560 5557 5553 5549 5545 5540
5643 5643 5644 5644 5644 5643 5642 5641 5640 5639 5638 5636 5634 5632 5630 5628 5625 5622 5619 5616 5612 5609 5605 5602 5598 5595 5591 5588 5584 5581 5577 5574 5570 5567 5563 5560 5556 5552 5548 5543 5538 5533 5528
5637 5638 5638 5639 5638 5638 5637 5636 5635 5634 5632 5631 5629 5627 5625 5623 5620 5617 5614 5611 5608 5605 5601 5598 5594 5591 5587 5584 5580 5576 5572 5568 5564 5560 5556 5552 5548 5543 5538 5533 5527 5521 5515
5631 5632 5632 5633 5633 5632 5632 5631 5629 5628 5627 5625 5624 5622 5620 5617 5615 5612 5609 5606 5603 5600 5597 5593 5590 5586 5582 5578 5575 5570 5566 5562 5558 5553 5549 5544 5539 5534 5528 5522 5516 5509 5502
5624 5625 5626 5626 5626 5626 5625 5625 5623 5622 5621 5619 5618 5616 5614 5612 5609 5607 5604 5601 5598 5594 5591 5587 5584 5580 5576 5572 5568 5564 5559 5555 5550 5545 5540 5535 5529 5523 5517 5510 5503 5496 5488
Wind_Speed
39 38 37 37 36 36 36 36 36 35 35 35 36 36 36 37 38 39 40 41 42 42 43 43 43 44 44 44 44 45 45 46 46 46 45 45 43 41 40 39 37 36 36
38 37 37 37 37 36 36 37 37 37 37 37 38 39 39 39 40 41 42 43 45 46 47 47 47 47 48 48 48 48 49 49 49 49 49 48 47 44 43 43 41 40 39
38 37 36 36 36 36 36 37 37 38 39 39 39 40 41 42 42 43 44 45 47 48 49 50 50 51 51 51 51 52 52 52 53 53 53 51 50 49 47 46 45 44 42
37 36 35 35 35 36 36 37 38 39 39 40 41 42 43 43 44 45 46 46 48 49 50 51 52 53 54 54 54 55 55 55 55 56 56 55 54 53 51 49 48 47 46
36 35 35 36 36 36 37 38 39 39 40 41 42 43 43 44 44 45 46 47 48 49 50 51 53 55 56 57 57 57 58 58 58 58 58 59 58 56 55 53 51 50 50
37 37 36 37 37 38 39 39 39 40 40 41 42 42 43 44 44 45 46 47 48 49 50 51 53 55 56 58 59 60 61 61 61 61 61 61 60 59 58 57 55 54 52
37 37 37 37 38 38 38 39 39 40 40 40 41 41 42 43 44 45 46 47 48 49 50 52 53 55 57 59 60 62 63 64 64 64 63 63 62 61 60 59 59 57 55
36 36 36 37 37 37 37 38 38 38 38 39 40 41 42 42 43 43 44 45 46 48 49 51 53 55 57 60 62 64 65 66 66 66 65 64 63 63 62 60 60 59 57
34 34 35 35 36 36 36 36 36 37 37 38 39 40 40 41 41 42 42 43 45 47 49 51 53 56 58 61 64 65 66 67 67 67 66 65 63 62 62 61 60 58 57
33 34 34 34 34 34 34 35 35 36 36 37 37 38 38 39 39 40 41 42 44 46 49 52 54 56 59 61 62 63 64 65 65 65 64 63 62 61 60 60 59 58 57
33 33 33 33 32 33 33 33 33 33 34 35 35 36 37 37 38 39 40 41 44 46 49 51 52 54 56 58 58 59 59 60 60 60 60 60 60 59 58 58 59 58 58
32 32 31 31 31 31 31 31 31 32 32 33 34 34 35 35 36 37 38 40 43 45 46 48 49 51 52 52 51 50 49 50 52 53 54 55 56 56 56 56 57 57 58
30 29 28 28 28 28 28 29 30 30 31 32 32 32 32 33 34 34 36 39 40 41 43 44 45 45 45 44 42 41 41 42 43 45 47 48 50 52 53 54 54 55 56
26 26 25 25 25 26 27 28 29 29 29 29 30 30 31 31 32 32 34 36 37 38 39 40 40 39 38 37 35 35 36 36 37 38 40 42 43 46 48 49 50 51 53
24 23 23 23 24 24 25 26 27 27 27 27 28 28 29 30 31 32 33 34 35 35 36 36 35 34 33 32 31 30 30 30 30 31 33 34 36 39 41 42 44 46 47
22 21 21 21 22 22 22 23 24 25 25 26 27 28 28 29 30 31 31 31 32 32 33 32 31 29 28 28 26 25 25 24 24 25 26 28 29 31 33 35 39 41 44
20 20 19 19 19 20 20 21 22 23 24 25 26 26 27 28 29 29 29 29 29 30 29 28 26 26 25 24 22 21 20 19 18 19 20 21 23 26 28 31 34 36 39
19 17 17 17 17 18 19 19 20 21 22 23 24 25 26 26 26 26 26 26 26 26 26 25 24 23 21 20 20 18 16 13 12 13 15 16 19 21 24 27 31 34 36
16 16 16 16 16 17 17 18 19 20 21 21 22 22 23 23 23 23 24 24 24 24 23 22 22 21 19 18 18 17 15 13 12 13 14 15 17 20 23 26 28 31 34
15 15 15 15 15 16 16 17 18 18 19 19 19 20 20 21 21 21 22 22 22 22 21 20 20 19 19 18 17 16 15 14 14 14 16 17 18 21 23 26 29 32 35
15 15 15 15 15 15 16 16 17 17 17 18 18 19 19 19 20 20 21 21 21 20 20 20 20 19 19 18 17 16 16 16 16 17 19 20 22 24 26 29 32 35 38
16 15 15 15 15 15 16 16 17 17 17 17 18 18 19 19 19 20 20 20 20 20 20 20 20 19 19 19 19 19 19 19 20 21 22 24 26 29 31 34 37 40 42
17 17 17 16 16 16 16 17 17 18 18 18 18 19 19 19 20 20 21 21 21 21 21 20 20 20 20 20 20 21 22 22 24 25 27 28 30 33 35 38 40 43 46
19 18 18 18 18 18 18 18 18 19 19 19 19 20 20 20 21 21 21 22 21 21 21 21 21 21 21 22 23 24 25 26 28 29 31 32 34 37 39 41 43 46 48
21 20 20 20 19 19 19 19 20 20 20 20 21 21 22 22 22 22 22 23 23 23 22 22 23 23 24 24 25 27 28 29 30 32 34 36 37 39 41 43 45 47 50
22 22 22 21 21 21 21 21 21 21 22 22 22 23 23 23 23 24 24 24 24 24 24 24 25 25 26 27 28 30 31 32 33 35 37 38 40 42 43 46 48 49 51
Wind_Direction
236 237 240 244 247 250 253 256 258 260 262 266 269 272 275 276 278 281 282 283 284 283 283 283 282 281 280 280 279 279 278 278 277 277 276 275 276 277 277 276 275 273 273
240 241 243 245 248 251 253 256 258 260 263 266 269 273 275 277 279 280 281 282 282 281 281 282 281 280 280 279 278 277 276 276 275 275 274 274 275 276 275 274 273 272 272
242 243 246 248 250 252 254 256 258 260 263 266 269 272 275 277 279 279 279 279 279 280 281 281 280 280 279 279 278 277 275 275 274 273 274 274 274 273 273 274 273 272 271
245 246 248 251 253 255 257 259 261 263 265 268 271 273 275 277 278 278 279 278 278 278 279 279 280 280 279 279 278 276 275 273 273 272 272 272 272 272 272 272 273 272 272
246 249 252 255 257 259 261 263 264 266 268 270 272 273 275 276 277 277 278 278 278 278 278 278 279 279 279 279 278 276 275 273 272 271 271 271 271 271 271 271 271 272 272
248 252 254 257 260 261 263 265 266 268 269 270 272 273 274 275 276 277 278 278 279 279 279 279 279 279 279 278 277 276 274 273 271 270 269 269 270 270 270 270 270 271 271
249 253 256 258 260 261 263 264 266 267 269 270 271 272 273 275 276 277 278 280 280 281 281 281 281 281 279 278 277 276 274 272 271 269 267 267 267 267 268 268 269 270 270
250 253 255 257 259 260 262 263 265 266 268 269 270 272 274 275 277 279 281 282 283 284 285 285 284 283 281 280 278 276 275 272 270 268 266 265 264 264 265 266 267 269 269
249 251 253 255 257 258 260 262 263 265 267 269 272 274 276 278 280 282 284 286 287 288 288 288 288 286 284 282 280 278 275 272 269 267 265 264 263 262 262 263 264 266 267
246 248 250 253 255 257 259 262 264 267 269 272 274 277 280 282 284 286 288 290 291 292 292 292 291 289 287 285 283 280 275 271 268 266 264 262 261 260 260 260 261 263 265
244 246 249 251 254 257 260 263 266 269 272 275 278 281 283 285 287 289 291 293 295 296 297 296 295 294 291 289 285 281 277 272 269 266 263 261 259 258 258 258 258 260 262
243 246 248 251 254 257 261 264 268 272 275 279 281 283 285 287 290 291 293 296 298 300 301 300 300 298 296 294 289 285 280 275 271 267 263 260 258 256 256 256 257 259 261
243 246 249 252 256 260 264 269 272 275 279 281 283 284 286 289 292 293 296 300 302 304 305 305 305 304 302 300 295 289 284 279 274 269 265 262 258 255 254 255 256 258 261
244 247 251 255 260 266 270 273 275 278 280 282 284 285 288 290 292 295 300 303 305 308 309 310 310 310 309 306 301 294 289 284 277 272 267 263 259 256 254 255 257 259 262
245 249 254 259 265 270 273 276 278 279 281 283 285 287 289 290 293 297 302 306 309 311 314 315 314 316 316 313 309 303 295 288 280 272 266 263 260 256 255 256 257 259 262
247 251 257 263 268 274 278 281 283 282 282 282 285 288 290 292 295 298 302 307 311 315 318 319 318 318 321 320 316 311 301 292 283 274 269 265 263 260 258 258 259 262 265
246 251 258 264 272 278 283 286 287 287 286 285 287 288 291 293 296 299 302 308 312 316 319 322 323 323 323 324 323 319 310 297 286 277 272 272 266 264 261 260 261 264 268
245 251 258 268 276 283 287 289 290 291 289 289 290 291 293 295 298 301 305 309 314 317 319 323 326 328 328 328 327 326 324 313 299 288 282 277 271 269 271 270 270 272 275
246 253 262 272 279 286 290 292 292 294 294 294 293 295 297 298 300 303 307 311 315 319 321 325 330 332 333 332 331 330 327 323 314 308 301 293 287 285 282 281 281 282 284
249 256 265 273 281 288 292 294 295 296 296 296 297 299 301 302 304 307 311 314 317 320 323 326 330 332 334 335 334 333 332 329 322 316 311 305 301 297 295 294 293 293 294
252 259 267 275 282 288 292 295 297 297 297 297 299 301 303 304 307 311 313 315 318 321 324 326 328 329 331 332 331 330 328 325 322 318 314 311 307 305 303 301 300 300 299
254 261 268 275 282 287 291 295 297 297 297 298 299 300 302 305 308 311 315 317 319 321 322 323 325 326 326 326 326 325 323 321 319 317 314 312 310 308 307 305 304 303 302
256 261 267 273 281 286 290 293 296 297 296 297 298 299 301 304 308 312 314 316 318 319 319 319 320 320 320 321 321 321 320 318 317 315 314 312 311 310 309 307 306 305 305
257 262 267 272 278 283 288 292 293 294 295 295 296 297 299 302 306 309 311 313 314 314 315 314 315 315 316 317 318 318 317 316 315 314 313 312 312 311 310 308 308 307 307
257 262 266 270 275 280 285 290 291 291 292 293 295 296 297 299 302 306 308 309 310 311 311 312 312 313 314 314 315 315 315 314 313 313 312 312 312 311 311 311 310 310 309
257 260 264 268 272 277 281 286 289 290 290 291 293 295 296 297 299 303 305 307 307 308 309 310 311 312 313 313 313 314 314 314 314 314 313 313 313 312 312 312 312 311 311